• Join FlightAware (Why Join?)
  • Login
  • US Flag 
02:37AM EDT


 

Airport Tracker/Info


-or-


 

Live Flight TrackerFlight Track Log ✈ SWA286 ✈ 19-Apr-2013 ✈ KBNA - KDEN

Flight Track Log - Related Links

Times and Time Zones

All times are in EDT time to prevent confusion due to time zone crossing. See the SWA286 flight status page for this flight to view local times or setup timezone preferences in your user account.

Time Position Orientation Groundspeed Altitude Reporting Facility
EDT Latitude Longitude Course Direction KTS MPH feet Rate Location/Type
04:47PM 36.1000 -86.6833 248° West 154 177 1,400  Level Nashville TRACON
04:47PM 36.0833 -86.7333 248° West 183 211 3,000 2,640 Climbing Nashville TRACON
04:48PM 36.1000 -86.8000 287° West 256 295 6,300 3,360 Climbing Nashville TRACON
04:49PM 36.1217 -86.8547 296° West 247 284 8,300 3,000 Climbing Memphis Center
04:50PM 36.1508 -86.9306 295° West 263 303 11,000 2,820 Climbing Memphis Center
04:51PM 36.1908 -87.0267 297° West 297 342 14,000 3,060 Climbing Memphis Center
04:52PM 36.2311 -87.1306 296° West 317 365 17,200 2,700 Climbing Memphis Center
04:53PM 36.2669 -87.2242 295° West 337 388 19,400 2,400 Climbing Memphis Center
04:54PM 36.2886 -87.3367 283° West 337 388 22,100 2,460 Climbing Memphis Center
04:55PM 36.3081 -87.4544 282° West 337 388 24,400 2,100 Climbing Memphis Center
04:56PM 36.3439 -87.5692 291° West 346 398 26,400 1,800 Climbing Memphis Center
04:57PM 36.3967 -87.6886 299° West 380 437 28,000 1,440 Climbing Memphis Center
04:58PM 36.4578 -87.8181 300° West 393 452 29,300 1,620 Climbing Memphis Center
04:59PM 36.5125 -87.9456 298° West 404 465 31,300 1,440 Climbing Memphis Center
05:01PM 36.6275 -88.1928 300° West 409 471 33,700 1,260 Climbing Memphis Center
05:02PM 36.6631 -88.3264 288° West 414 476 35,100 1,500 Climbing Memphis Center
05:03PM 36.6861 -88.4578 282° West 392 451 36,700 1,320 Climbing Memphis Center
05:04PM 36.7044 -88.5867 280° West 392 451 37,800 600 Climbing Memphis Center
05:05PM 36.7250 -88.7156 281° West 387 445 38,000 60 Climbing Memphis Center
05:06PM 36.7433 -88.8447 280° West 387 445 38,000  Level Memphis Center
05:07PM 36.7636 -88.9739 281° West 387 445 38,000  Level Memphis Center
05:09PM 36.8039 -89.2350 281° West 387 445 38,000  Level Memphis Center
05:10PM 36.8236 -89.3617 281° West 387 445 38,000  Level Memphis Center
05:11PM 36.8414 -89.4911 280° West 387 445 38,000  Level Memphis Center
05:12PM 36.8608 -89.6231 280° West 387 445 38,000  Level Memphis Center
05:13PM 36.8825 -89.7525 282° West 387 445 38,000  Level Memphis Center
05:14PM 36.8997 -89.8794 280° West 387 445 38,000  Level Memphis Center
05:15PM 36.9169 -90.0092 279° West 387 445 38,000  Level Memphis Center
05:16PM 36.9358 -90.1389 280° West 387 445 38,000  Level Memphis Center
05:17PM 36.9528 -90.2686 279° West 387 445 38,000  Level Memphis Center
05:18PM 36.9714 -90.3983 280° West 387 445 38,000  Level Memphis Center
05:19PM 36.9903 -90.5283 280° West 387 445 38,000  Level Memphis Center
05:21PM 37.0347 -90.8278 281° West 380 437 38,000  Level Kansas City Center
05:22PM 37.0528 -90.9561 280° West 377 434 38,000  Level Kansas City Center
05:23PM 37.0708 -91.0842 280° West 375 432 38,000  Level Kansas City Center
05:24PM 37.0878 -91.2153 279° West 373 429 38,000  Level Kansas City Center
05:25PM 37.1044 -91.3422 279° West 370 426 38,000  Level Kansas City Center
05:27PM 37.1222 -91.4717 280° West 373 429 38,000  Level Kansas City Center
05:28PM 37.1386 -91.6000 279° West 372 428 38,000  Level Kansas City Center
05:29PM 37.1603 -91.7544 280° West 373 429 38,000  Level Kansas City Center
05:30PM 37.1764 -91.8850 279° West 377 434 38,000  Level Kansas City Center
05:31PM 37.1939 -92.0156 280° West 377 434 38,000  Level Kansas City Center
05:32PM 37.2103 -92.1456 279° West 375 432 38,000  Level Kansas City Center
05:33PM 37.2272 -92.2742 279° West 374 430 38,000  Level Kansas City Center
05:34PM 37.2439 -92.4072 279° West 376 433 38,000  Level Kansas City Center
05:35PM 37.2606 -92.5408 279° West 380 437 38,000  Level Kansas City Center
05:36PM 37.2772 -92.6756 279° West 386 444 38,000  Level Kansas City Center
05:37PM 37.2931 -92.8106 278° West 387 445 38,000  Level Kansas City Center
05:38PM 37.3128 -92.9714 279° West 387 445 38,000  Level Kansas City Center
05:39PM 37.3294 -93.1083 279° West 392 451 38,000  Level Kansas City Center
05:40PM 37.3450 -93.2428 278° West 389 448 38,000  Level Kansas City Center
05:41PM 37.3656 -93.3742 281° West 385 443 38,000  Level Kansas City Center
05:42PM 37.4031 -93.5044 290° West 391 450 38,000  Level Kansas City Center
05:43PM 37.4400 -93.6361 289° West 394 453 38,000  Level Kansas City Center
05:44PM 37.4758 -93.7658 289° West 393 452 38,000  Level Kansas City Center
05:45PM 37.5189 -93.9228 289° West 392 451 38,000  Level Kansas City Center
05:46PM 37.5556 -94.0533 290° West 394 453 38,000  Level Kansas City Center
05:47PM 37.5942 -94.1894 290° West 394 453 38,000  Level Kansas City Center
05:48PM 37.6289 -94.3214 288° West 396 456 38,000  Level Kansas City Center
05:49PM 37.6647 -94.4514 289° West 394 453 38,000  Level Kansas City Center
05:50PM 37.7008 -94.5872 289° West 394 453 38,000  Level Kansas City Center
05:51PM 37.7339 -94.7131 288° West 394 453 38,000  Level Kansas City Center
05:52PM 37.7736 -94.8600 289° West 394 453 38,000  Level Kansas City Center
05:53PM 37.8072 -94.9881 288° West 398 458 38,000  Level Kansas City Center
05:54PM 37.8464 -95.1369 288° West 397 457 38,000  Level Kansas City Center
05:55PM 37.8814 -95.2692 289° West 398 458 38,000  Level Kansas City Center
05:57PM 37.9156 -95.4031 288° West 398 458 38,000  Level Kansas City Center
05:58PM 37.9528 -95.5442 289° West 405 466 38,000  Level Kansas City Center
05:59PM 37.9922 -95.6928 289° West 398 458 38,000  Level Kansas City Center
06:00PM 38.0247 -95.8197 288° West 396 456 38,000  Level Kansas City Center
06:01PM 38.0564 -95.9478 287° West 399 459 38,000  Level Kansas City Center
06:02PM 38.0942 -96.0953 288° West 394 453 38,000  Level Kansas City Center
06:03PM 38.1272 -96.2261 288° West 396 456 38,000  Level Kansas City Center
06:04PM 38.1606 -96.3589 288° West 395 455 38,000  Level Kansas City Center
06:05PM 38.1928 -96.4911 287° West 394 453 38,000  Level Kansas City Center
06:06PM 38.2264 -96.6228 288° West 392 451 38,000  Level Kansas City Center
06:07PM 38.2656 -96.7811 288° West 393 452 38,000  Level Kansas City Center
06:08PM 38.2983 -96.9133 288° West 392 451 38,000  Level Kansas City Center
06:09PM 38.3303 -97.0442 287° West 390 449 38,000  Level Kansas City Center
06:10PM 38.3611 -97.1739 287° West 385 443 38,000  Level Kansas City Center
06:11PM 38.3925 -97.3033 287° West 385 443 38,000  Level Kansas City Center
06:12PM 38.4297 -97.4603 287° West 387 445 38,000  Level Kansas City Center
06:13PM 38.4611 -97.5903 287° West 388 447 38,000  Level Kansas City Center
06:14PM 38.4906 -97.7158 287° West 377 434 38,000  Level Kansas City Center
06:15PM 38.5208 -97.8419 287° West 373 429 38,000  Level Kansas City Center
06:16PM 38.5506 -97.9689 287° West 375 432 38,000  Level Kansas City Center
06:17PM 38.5864 -98.1192 287° West 372 428 38,000  Level Kansas City Center
06:18PM 38.6144 -98.2447 286° West 369 425 38,000  Level Kansas City Center
06:19PM 38.6442 -98.3719 287° West 373 429 38,000  Level Kansas City Center
06:20PM 38.6731 -98.4994 286° West 374 430 38,000  Level Kansas City Center
06:21PM 38.7019 -98.6283 286° West 378 435 38,000  Level Kansas City Center
06:22PM 38.7331 -98.7583 287° West 382 440 38,000  Level Kansas City Center
06:23PM 38.7675 -98.9156 286° West 383 441 38,000  Level Kansas City Center
06:24PM 38.7975 -99.0467 286° West 384 442 38,000  Level Kansas City Center
06:25PM 38.8272 -99.1769 286° West 381 438 38,000  Level Kansas City Center
06:26PM 38.8492 -99.3133 282° West 390 449 38,000  Level Kansas City Center
06:28PM 38.8500 -99.4561 270° West 398 458 38,000  Level Kansas City Center
06:28PM 38.8511 -99.5967 271° West 393 452 38,000  Level Denver Center
06:29PM 38.8522 -99.7294 271° West 391 450 38,000  Level Denver Center
06:31PM 38.8531 -99.8822 270° West 385 443 38,000  Level Denver Center
06:32PM 38.8531 -99.9928 270° West 388 447 38,000  Level Denver Center
06:33PM 38.8542 -100.1667 271° West 384 442 38,000  Level Denver Center
06:34PM 38.8547 -100.2975 270° West 384 442 38,000  Level Denver Center
06:35PM 38.8553 -100.4519 270° West 388 447 38,000  Level Denver Center
06:36PM 38.8556 -100.5811 270° West 383 441 38,000  Level Denver Center
06:37PM 38.8553 -100.7358 270° West 388 447 38,000  Level Denver Center
06:38PM 38.8544 -100.8700 270° West 392 451 38,000  Level Denver Center
06:39PM 38.8547 -101.0247 270° West 390 449 38,000  Level Denver Center
06:40PM 38.8539 -101.1578 270° West 391 450 38,000  Level Denver Center
06:41PM 38.8528 -101.3150 270° West 395 455 38,000  Level Denver Center
06:42PM 38.8522 -101.4497 270° West 395 455 38,000  Level Denver Center
06:43PM 38.8511 -101.6094 270° West 399 459 38,000 -480 Level Denver Center
06:44PM 38.8497 -101.7433 269° West 395 455 37,100 -1,080 Descending Denver Center
06:45PM 38.8481 -101.8950 269° West 384 442 35,800 -1,200 Descending Denver Center
06:46PM 38.8467 -102.0292 269° West 391 450 34,700 -900 Descending Denver Center
06:47PM 38.8522 -102.1833 273° West 388 447 34,000 -360 Descending Denver Center
06:48PM 38.8925 -102.3053 293° West 387 445 34,000  Level Denver Center
06:49PM 38.9308 -102.4275 292° West 388 447 34,000  Level Denver Center
06:50PM 38.9756 -102.5700 292° West 386 444 34,000  Level Denver Center
06:51PM 39.0125 -102.6925 291° West 385 443 34,000  Level Denver Center
06:52PM 39.0589 -102.8400 292° West 384 442 34,000  Level Denver Center
06:53PM 39.1056 -102.9894 292° West 383 441 34,000 -1,020 Level Denver Center
06:54PM 39.1467 -103.1172 293° West 382 440 31,900 -2,340 Descending Denver Center
06:55PM 39.1864 -103.2489 291° West 388 447 29,200 -2,460 Descending Denver Center
06:57PM 39.2250 -103.3739 292° West 375 432 26,900 -2,280 Descending Denver Center
06:58PM 39.2625 -103.4922 292° West 357 411 24,600 -2,280 Descending Denver Center
06:59PM 39.3019 -103.6256 291° West 339 390 22,200 -2,160 Descending Denver Center
07:00PM 39.3353 -103.7353 291° West 327 376 20,200 -1,800 Descending Denver Center
07:01PM 39.3681 -103.8447 291° West 324 373 18,200 -1,560 Descending Denver Center
07:02PM 39.3981 -103.9786 286° West 312 359 16,700 -1,500 Descending Denver Center
07:03PM 39.4044 -104.0836 275° West 297 342 15,200 -1,560 Descending Denver Center
07:04PM 39.4081 -104.1939 272° West 282 325 13,500 -1,740 Descending Denver Center
07:05PM 39.4306 -104.2919 287° West 283 326 11,700 -1,260 Descending Denver Center
07:06PM 39.4697 -104.3847 299° West 275 316 11,000 -360 Descending Denver Center
07:07PM 39.5022 -104.4603 299° West 245 282 11,000 -540 Level Denver Center
07:08PM 39.5581 -104.5183 321° Northwest 252 290 9,900 -1,020 Descending Denver Center
07:09PM 39.6108 -104.5689 324° Northwest 238 274 9,000 -660 Descending Denver Center
07:10PM 39.6606 -104.6208 321° Northwest 234 269 8,600 -540 Descending Denver Center
07:11PM 39.7167 -104.6483 339° North 206 237 7,900 -960 Descending Denver Center
07:12PM 39.7647 -104.6617 348° North 182 209 6,700 -1,020 Descending Denver Center
07:13PM 39.8111 -104.6608 North 157 181 5,800 -660 Descending Denver Center
07:14PM 39.8489 -104.6611 360° North 146 168 5,400 -420 Descending Denver Center
07:16PM 39.8500 -104.6667 North  Level FlightAware Approximate
07:23PM 39.8617 -104.6732 North  Level Estimated
07:24PM 39.8617 -104.6732 North  Level Estimated